FLOCK 2K-34 (42878 NORAD) Tracking and Keplerian Element Data

This shows tracking and keplerian element data for the satellite.

Feedback or suggestion? Click here.




ElementValue
Catalog42878
NameFLOCK 2K-34
Epoch Orbit3282
Epoch Day45.62603531
Epoch Year2018
RAAN308.453
Inclination96.993
Eccentricity0.0012121
Argument of Perigee176.9701
Mean Anonmoly183.1619
Mean Motion15.356764
Decay Rate7.004E-05
L11 42878U 17042BF 18045.62603531 .00007004 00000-0 20361-3 0 9993
L22 42878 96.9930 308.4530 0012121 176.9701 183.1619 15.35676400 32829

Live tracking and technical data element details for FLOCK 2K-34 (NORAD 42878). FLOCK 2K-34 can be tracked NOW for your location showing map with azimuth and elevation plus other details from your city location.

Track the satellite on the map from your city or location and see movement details for azimuth, elevation, latitude, longitude, range, height, and movement on the map or in text.







IsCatalogInMostPopularTable: catalog: 42878, numindb: 126
Update: records affected: 1



GetName: 42878 FLOCK 2K-34

Hit Count: updated at: Mon, 19 Nov 2018 14:16:00 GMT